| time (UTC) | temp F | wind direction | speed MPH | gust MPH | rain 1hr in | rain 24hr in | rain mn in | humidity % | barometer mb |
| 20260505204542 | 79 | 214 | 4.0 | 11.0 | 0.00 | 0.00 | 0.00 | 47 | 1005.3 |
| 20260505204032 | 79 | 99 | 3.0 | 11.0 | 0.00 | 0.00 | 0.00 | 48 | 1005.4 |
| 20260505203530 | 79 | 172 | 5.0 | 15.0 | 0.00 | 0.00 | 0.00 | 48 | 1005.5 |
| 20260505203037 | 80 | 165 | 4.0 | 15.0 | 0.00 | 0.00 | 0.00 | 47 | 1005.3 |
| 20260505202530 | 80 | 167 | 2.0 | 8.0 | 0.00 | 0.00 | 0.00 | 48 | 1005.4 |
| 20260505202029 | 81 | 147 | 4.0 | 9.0 | 0.00 | 0.00 | 0.00 | 46 | 1005.3 |
| 20260505201536 | 80 | 232 | 4.0 | 9.0 | 0.00 | 0.00 | 0.00 | 47 | 1005.6 |
| 20260505201033 | 81 | 162 | 4.0 | 9.0 | 0.00 | 0.00 | 0.00 | 47 | 1005.5 |
| 20260505200530 | 80 | 201 | 5.0 | 9.0 | 0.00 | 0.00 | 0.00 | 46 | 1005.6 |
| 20260505200043 | 81 | 205 | 4.0 | 9.0 | 0.00 | 0.00 | 0.00 | 45 | 1005.6 |
| 20260505195530 | 81 | 170 | 2.0 | 10.0 | 0.00 | 0.00 | 0.00 | 52 | 1005.5 |
| 20260505195030 | 81 | 179 | 4.0 | 11.0 | 0.00 | 0.00 | 0.00 | 48 | 1005.4 |
| 20260505194545 | 81 | 217 | 4.0 | 11.0 | 0.00 | 0.00 | 0.00 | 46 | 1005.4 |
| 20260505194030 | 80 | 152 | 4.0 | 10.0 | 0.00 | 0.00 | 0.00 | 47 | 1005.6 |
| 20260505193531 | 81 | 138 | 4.0 | 8.0 | 0.00 | 0.00 | 0.00 | 45 | 1005.5 |
| 20260505193050 | 81 | 217 | 3.0 | 8.0 | 0.00 | 0.00 | 0.00 | 44 | 1005.5 |
| 20260505192535 | 81 | 192 | 3.0 | 9.0 | 0.00 | 0.00 | 0.00 | 45 | 1005.6 |
| 20260505192032 | 82 | 176 | 4.0 | 11.0 | 0.00 | 0.00 | 0.00 | 44 | 1005.8 |
| 20260505191543 | 83 | 154 | 4.0 | 15.0 | 0.00 | 0.00 | 0.00 | 35 | 1005.7 |
| 20260505191029 | 83 | 165 | 5.0 | 15.0 | 0.00 | 0.00 | 0.00 | 37 | 1005.6 |
| 20260505190530 | 83 | 206 | 4.0 | 8.0 | 0.00 | 0.00 | 0.00 | 37 | 1005.7 |
| 20260505190043 | 83 | 178 | 2.0 | 8.0 | 0.00 | 0.00 | 0.00 | 37 | 1005.9 |
| 20260505185530 | 83 | 185 | 3.0 | 16.0 | 0.00 | 0.00 | 0.00 | 38 | 1005.8 |
| 20260505185032 | 83 | 141 | 7.0 | 18.0 | 0.00 | 0.00 | 0.00 | 37 | 1005.9 |
| 20260505184536 | 83 | 211 | 7.0 | 18.0 | 0.00 | 0.00 | 0.00 | 38 | 1005.9 |
| 20260505184027 | 82 | 157 | 3.0 | 7.0 | 0.00 | 0.00 | 0.00 | 45 | 1006.0 |
| 20260505183528 | 81 | 124 | 1.0 | 7.0 | 0.00 | 0.00 | 0.00 | 52 | 1006.0 |
| 20260505183044 | 80 | 208 | 3.0 | 9.0 | 0.00 | 0.00 | 0.00 | 47 | 1006.1 |
| 20260505182530 | 80 | 143 | 4.0 | 9.0 | 0.00 | 0.00 | 0.00 | 47 | 1006.4 |
| 20260505182027 | 82 | 150 | 3.0 | 10.0 | 0.00 | 0.00 | 0.00 | 45 | 1006.2 |
| 20260505181546 | 81 | 122 | 4.0 | 10.0 | 0.00 | 0.00 | 0.00 | 48 | 1006.1 |
| 20260505181030 | 80 | 173 | 3.0 | 7.0 | 0.00 | 0.00 | 0.00 | 47 | 1006.2 |
| 20260505180530 | 81 | 129 | 4.0 | 7.0 | 0.00 | 0.00 | 0.00 | 45 | 1006.2 |
| 20260505180040 | 81 | 150 | 5.0 | 7.0 | 0.00 | 0.00 | 0.00 | 44 | 1006.5 |
| 20260505175530 | 82 | 145 | 2.0 | 8.0 | 0.00 | 0.00 | 0.00 | 46 | 1006.4 |
| 20260505175031 | 82 | 109 | 3.0 | 9.0 | 0.00 | 0.00 | 0.00 | 48 | 1006.7 |
| 20260505174549 | 82 | 152 | 4.0 | 14.0 | 0.00 | 0.00 | 0.00 | 47 | 1006.6 |
| 20260505174027 | 82 | 150 | 4.0 | 14.0 | 0.00 | 0.00 | 0.00 | 47 | 1006.7 |
| 20260505173526 | 82 | 184 | 4.0 | 9.0 | 0.00 | 0.00 | 0.00 | 47 | 1006.7 |
| 20260505173035 | 82 | 119 | 3.0 | 9.0 | 0.00 | 0.00 | 0.00 | 50 | 1006.7 |
| 20260505172526 | 81 | 139 | 2.0 | 9.0 | 0.00 | 0.00 | 0.00 | 51 | 1006.8 |
| 20260505172029 | 81 | 136 | 4.0 | 9.0 | 0.00 | 0.00 | 0.00 | 48 | 1006.8 |
| 20260505171545 | 81 | 198 | 4.0 | 9.0 | 0.00 | 0.00 | 0.00 | 49 | 1006.8 |
| 20260505171029 | 81 | 139 | 3.0 | 8.0 | 0.00 | 0.00 | 0.00 | 48 | 1006.9 |
| 20260505170528 | 80 | 163 | 2.0 | 11.0 | 0.00 | 0.00 | 0.00 | 52 | 1007.1 |
| 20260505170043 | 79 | 240 | 4.0 | 11.0 | 0.00 | 0.00 | 0.00 | 48 | 1007.2 |
| 20260505165527 | 80 | 129 | 3.0 | 7.0 | 0.00 | 0.00 | 0.00 | 53 | 1007.3 |
| 20260505165031 | 79 | 121 | 3.0 | 7.0 | 0.00 | 0.00 | 0.00 | 55 | 1007.1 |
| 20260505164544 | 80 | 192 | 4.0 | 6.0 | 0.00 | 0.00 | 0.00 | 51 | 1007.3 |
| 20260505164027 | 80 | 123 | 3.0 | 8.0 | 0.00 | 0.00 | 0.00 | 51 | 1007.5 |
| 20260505163528 | 79 | 192 | 3.0 | 8.0 | 0.00 | 0.00 | 0.00 | 52 | 1007.5 |
| 20260505163041 | 79 | 177 | 2.0 | 7.0 | 0.00 | 0.00 | 0.00 | 52 | 1007.7 |
| 20260505162529 | 78 | 165 | 4.0 | 6.0 | 0.00 | 0.00 | 0.00 | 53 | 1007.9 |
| 20260505162027 | 78 | 169 | 2.0 | 5.0 | 0.00 | 0.00 | 0.00 | 54 | 1008.1 |
| 20260505161543 | 77 | 165 | 2.0 | 7.0 | 0.00 | 0.00 | 0.00 | 53 | 1008.1 |
| 20260505161028 | 77 | 155 | 3.0 | 8.0 | 0.00 | 0.00 | 0.00 | 56 | 1008.2 |
| 20260505160528 | 77 | 261 | 2.0 | 8.0 | 0.00 | 0.00 | 0.00 | 56 | 1008.2 |
| 20260505153043 | 75 | 167 | 2.0 | 6.0 | 0.00 | 0.00 | 0.00 | 56 | 1008.7 |
| 20260505152529 | 74 | 157 | 2.0 | 6.0 | 0.00 | 0.00 | 0.00 | 58 | 1008.7 |
| 20260505152028 | 74 | 140 | 3.0 | 6.0 | 0.00 | 0.00 | 0.00 | 57 | 1008.8 |
| 20260505151538 | 74 | 119 | 2.0 | 6.0 | 0.00 | 0.00 | 0.00 | 56 | 1009.0 |
| 20260505151029 | 73 | 188 | 2.0 | 6.0 | 0.00 | 0.00 | 0.00 | 59 | 1009.0 |
| 20260505150531 | 73 | 200 | 2.0 | 6.0 | 0.00 | 0.00 | 0.00 | 60 | 1009.1 |
| 20260505140530 | 66 | 215 | 1.0 | 4.0 | 0.00 | 0.00 | 0.00 | 69 | 1009.8 |
| 20260505125030 | 59 | 166 | 0.0 | 3.0 | 0.00 | 0.00 | 0.00 | 78 | 1010.2 |
| 20260505124547 | 58 | 160 | 0.0 | 4.0 | 0.00 | 0.00 | 0.00 | 77 | 1010.3 |
| 20260505124033 | 58 | 152 | 1.0 | 4.0 | 0.00 | 0.00 | 0.00 | 78 | 1010.3 |
| 20260505123531 | 58 | 127 | 0.0 | 3.0 | 0.00 | 0.00 | 0.00 | 78 | 1010.2 |
| 20260505123043 | 57 | 159 | 1.0 | 3.0 | 0.00 | 0.00 | 0.00 | 80 | 1010.3 |
| 20260505122531 | 57 | 246 | 0.0 | 3.0 | 0.00 | 0.00 | 0.00 | 80 | 1010.2 |
| 20260505122030 | 56 | 0 | 1.0 | 2.0 | 0.00 | 0.00 | 0.00 | 81 | 1010.3 |
| 20260505121543 | 56 | 250 | 1.0 | 2.0 | 0.00 | 0.00 | 0.00 | 81 | 1010.1 |
| 20260505121030 | 55 | 139 | 0.0 | 2.0 | 0.00 | 0.00 | 0.00 | 83 | 1010.1 |
| 20260505120532 | 54 | 0 | 0.0 | 2.0 | 0.00 | 0.00 | 0.00 | 84 | 1010.3 |
| 20260505120038 | 54 | 0 | 0.0 | 1.0 | 0.00 | 0.00 | 0.00 | 85 | 1010.3 |
| 20260505115529 | 53 | 0 | 0.0 | 0.0 | 0.00 | 0.00 | 0.00 | 86 | 1010.3 |
| 20260505115030 | 52 | 0 | 0.0 | 1.0 | 0.00 | 0.00 | 0.00 | 88 | 1010.2 |
| 20260505114535 | 52 | 0 | 0.0 | 1.0 | 0.00 | 0.00 | 0.00 | 87 | 1010.2 |
| 20260505114030 | 52 | 0 | 0.0 | 1.0 | 0.00 | 0.00 | 0.00 | 87 | 1010.6 |
| 20260505113530 | 52 | 0 | 0.0 | 1.0 | 0.00 | 0.00 | 0.00 | 88 | 1010.6 |
| 20260505113044 | 51 | 0 | 0.0 | 1.0 | 0.00 | 0.00 | 0.00 | 89 | 1010.5 |
| 20260505112530 | 51 | 54 | 0.0 | 2.0 | 0.00 | 0.00 | 0.00 | 90 | 1010.3 |
| 20260505112030 | 50 | 0 | 0.0 | 2.0 | 0.00 | 0.00 | 0.00 | 90 | 1010.4 |
| 20260505111543 | 49 | 228 | 0.0 | 2.0 | 0.00 | 0.00 | 0.00 | 91 | 1010.6 |
| 20260505111030 | 49 | 0 | 0.0 | 2.0 | 0.00 | 0.00 | 0.00 | 92 | 1010.3 |
| 20260505110530 | 48 | 148 | 0.0 | 2.0 | 0.00 | 0.00 | 0.00 | 93 | 1010.2 |
| 20260505102030 | 44 | 0 | 0.0 | 0.0 | 0.00 | 0.00 | 0.00 | 93 | 1009.7 |
| 20260505101550 | 44 | 0 | 0.0 | 0.0 | 0.00 | 0.00 | 0.00 | 92 | 1009.6 |
| 20260505101030 | 44 | 0 | 0.0 | 0.0 | 0.00 | 0.00 | 0.00 | 93 | 1009.7 |
| 20260505100530 | 44 | 0 | 0.0 | 0.0 | 0.00 | 0.00 | 0.00 | 92 | 1009.7 |
| 20260505100045 | 44 | 0 | 0.0 | 0.0 | 0.00 | 0.00 | 0.00 | 93 | 1009.5 |
| 20260505095530 | 44 | 0 | 0.0 | 0.0 | 0.00 | 0.00 | 0.00 | 92 | 1009.4 |
| 20260505095030 | 44 | 0 | 0.0 | 0.0 | 0.00 | 0.00 | 0.00 | 92 | 1009.7 |
| 20260505094547 | 45 | 0 | 0.0 | 0.0 | 0.00 | 0.00 | 0.00 | 92 | 1009.5 |
| 20260505094030 | 45 | 0 | 0.0 | 0.0 | 0.00 | 0.00 | 0.00 | 91 | 1009.6 |
| 20260505093530 | 45 | 0 | 0.0 | 0.0 | 0.00 | 0.00 | 0.00 | 91 | 1009.5 |
| 20260505093043 | 45 | 0 | 0.0 | 0.0 | 0.00 | 0.00 | 0.00 | 91 | 1009.5 |
| 20260505092529 | 46 | 0 | 0.0 | 0.0 | 0.00 | 0.00 | 0.00 | 91 | 1009.5 |
| 20260505092030 | 46 | 0 | 0.0 | 0.0 | 0.00 | 0.00 | 0.00 | 91 | 1009.6 |
| 20260505091540 | 46 | 0 | 0.0 | 0.0 | 0.00 | 0.00 | 0.00 | 91 | 1009.4 |
| 20260505091029 | 46 | 0 | 0.0 | 0.0 | 0.00 | 0.00 | 0.00 | 91 | 1009.4 |
| 20260505090530 | 46 | 0 | 0.0 | 0.0 | 0.00 | 0.00 | 0.00 | 91 | 1009.5 |
| 20260505090048 | 46 | 0 | 0.0 | 0.0 | 0.00 | 0.00 | 0.00 | 91 | 1009.6 |
| 20260505085530 | 46 | 0 | 0.0 | 0.0 | 0.00 | 0.00 | 0.00 | 92 | 1009.6 |
| 20260505085030 | 46 | 0 | 0.0 | 0.0 | 0.00 | 0.00 | 0.00 | 92 | 1009.7 |
| 20260505084552 | 46 | 0 | 0.0 | 0.0 | 0.00 | 0.00 | 0.00 | 93 | 1009.7 |
| 20260505084030 | 45 | 0 | 0.0 | 0.0 | 0.00 | 0.00 | 0.00 | 93 | 1009.7 |
| 20260505083529 | 45 | 0 | 0.0 | 0.0 | 0.00 | 0.00 | 0.00 | 91 | 1009.8 |
| 20260505083055 | 45 | 0 | 0.0 | 0.0 | 0.00 | 0.00 | 0.00 | 90 | 1009.9 |
| 20260505082529 | 45 | 0 | 0.0 | 0.0 | 0.00 | 0.00 | 0.00 | 90 | 1009.8 |
| 20260505082155 | 46 | 0 | 0.0 | 0.0 | 0.00 | 0.00 | 0.00 | 89 | 1009.8 |
| 20260505081547 | 47 | 0 | 0.0 | 0.0 | 0.00 | 0.00 | 0.00 | 90 | 1009.8 |
| 20260505081030 | 47 | 0 | 0.0 | 0.0 | 0.00 | 0.00 | 0.00 | 91 | 1009.8 |
| 20260505080530 | 46 | 0 | 0.0 | 0.0 | 0.00 | 0.00 | 0.00 | 91 | 1009.8 |
| 20260505080048 | 46 | 0 | 0.0 | 0.0 | 0.00 | 0.00 | 0.00 | 92 | 1009.8 |
| 20260505075529 | 46 | 0 | 0.0 | 0.0 | 0.00 | 0.00 | 0.00 | 92 | 1009.8 |
| 20260505075030 | 45 | 0 | 0.0 | 0.0 | 0.00 | 0.00 | 0.00 | 92 | 1010.0 |
| 20260505074539 | 45 | 0 | 0.0 | 0.0 | 0.00 | 0.00 | 0.00 | 92 | 1010.1 |
| 20260505074030 | 45 | 0 | 0.0 | 0.0 | 0.00 | 0.00 | 0.00 | 92 | 1010.0 |
| 20260505073530 | 45 | 0 | 0.0 | 0.0 | 0.00 | 0.00 | 0.00 | 91 | 1010.0 |
| 20260505073046 | 45 | 0 | 0.0 | 0.0 | 0.00 | 0.00 | 0.00 | 91 | 1009.9 |
| 20260505072530 | 45 | 0 | 0.0 | 0.0 | 0.00 | 0.00 | 0.00 | 91 | 1009.8 |
| 20260505072029 | 45 | 0 | 0.0 | 0.0 | 0.00 | 0.00 | 0.00 | 91 | 1010.0 |
| 20260505071547 | 45 | 0 | 0.0 | 0.0 | 0.00 | 0.00 | 0.00 | 91 | 1010.1 |
| 20260505071032 | 45 | 0 | 0.0 | 0.0 | 0.00 | 0.00 | 0.00 | 91 | 1010.1 |
| 20260505070530 | 45 | 0 | 0.0 | 0.0 | 0.00 | 0.00 | 0.00 | 91 | 1010.1 |
| 20260505070041 | 45 | 0 | 0.0 | 0.0 | 0.00 | 0.00 | 0.00 | 91 | 1010.1 |
| 20260505065833 | 45 | 0 | 0.0 | 0.0 | 0.00 | 0.00 | 0.00 | 90 | 1010.0 |
| 20260505065029 | 45 | 0 | 0.0 | 0.0 | 0.00 | 0.00 | 0.00 | 90 | 1010.1 |
| 20260505064543 | 45 | 0 | 0.0 | 0.0 | 0.00 | 0.00 | 0.00 | 89 | 1010.2 |
| 20260505064031 | 46 | 0 | 0.0 | 0.0 | 0.00 | 0.00 | 0.00 | 89 | 1010.0 |
| 20260505063530 | 46 | 0 | 0.0 | 0.0 | 0.00 | 0.00 | 0.00 | 89 | 1010.1 |
| 20260505063042 | 46 | 0 | 0.0 | 0.0 | 0.00 | 0.00 | 0.00 | 88 | 1010.1 |
| 20260505062530 | 46 | 0 | 0.0 | 0.0 | 0.00 | 0.00 | 0.00 | 88 | 1010.3 |
| 20260505062030 | 46 | 0 | 0.0 | 0.0 | 0.00 | 0.00 | 0.00 | 86 | 1010.2 |
| 20260505061539 | 47 | 0 | 0.0 | 0.0 | 0.00 | 0.00 | 0.00 | 85 | 1010.3 |
| 20260505061030 | 47 | 0 | 0.0 | 0.0 | 0.00 | 0.00 | 0.00 | 86 | 1010.2 |
| 20260505060530 | 47 | 0 | 0.0 | 0.0 | 0.00 | 0.00 | 0.00 | 86 | 1010.3 |
| 20260505060049 | 48 | 0 | 0.0 | 0.0 | 0.00 | 0.00 | 0.00 | 85 | 1010.2 |
| 20260505055530 | 48 | 0 | 0.0 | 0.0 | 0.00 | 0.00 | 0.00 | 85 | 1010.3 |
| 20260505055030 | 48 | 0 | 0.0 | 0.0 | 0.00 | 0.00 | 0.00 | 84 | 1010.2 |
| 20260505054541 | 49 | 0 | 0.0 | 0.0 | 0.00 | 0.00 | 0.00 | 83 | 1010.3 |
| 20260505054029 | 49 | 0 | 0.0 | 0.0 | 0.00 | 0.00 | 0.00 | 83 | 1010.3 |
| 20260505053532 | 50 | 0 | 0.0 | 0.0 | 0.00 | 0.00 | 0.00 | 82 | 1010.4 |
| 20260505053038 | 50 | 0 | 0.0 | 0.0 | 0.00 | 0.00 | 0.00 | 81 | 1010.4 |
| 20260505052529 | 50 | 0 | 0.0 | 0.0 | 0.00 | 0.00 | 0.00 | 81 | 1010.4 |
| 20260505052029 | 50 | 0 | 0.0 | 0.0 | 0.00 | 0.00 | 0.00 | 80 | 1010.4 |
| 20260505051541 | 51 | 0 | 0.0 | 0.0 | 0.00 | 0.00 | 0.00 | 80 | 1010.6 |
| 20260505051030 | 51 | 0 | 0.0 | 0.0 | 0.00 | 0.00 | 0.00 | 79 | 1010.6 |
| 20260505050531 | 51 | 0 | 0.0 | 0.0 | 0.00 | 0.00 | 0.00 | 79 | 1010.6 |
| 20260505041535 | 53 | 0 | 0.0 | 0.0 | 0.00 | 0.00 | 0.00 | 74 | 1010.4 |
| 20260505041030 | 53 | 0 | 0.0 | 0.0 | 0.00 | 0.00 | 0.00 | 74 | 1010.5 |
| 20260505040530 | 53 | 0 | 0.0 | 0.0 | 0.00 | 0.00 | 0.00 | 73 | 1010.5 |
| 20260505040044 | 54 | 0 | 0.0 | 0.0 | 0.00 | 0.00 | 0.00 | 72 | 1010.4 |
| 20260505035531 | 54 | 0 | 0.0 | 0.0 | 0.00 | 0.00 | 0.00 | 72 | 1010.4 |
| 20260505035026 | 54 | 0 | 0.0 | 0.0 | 0.00 | 0.00 | 0.00 | 72 | 1010.4 |
| 20260505034540 | 54 | 0 | 0.0 | 0.0 | 0.00 | 0.00 | 0.00 | 71 | 1010.3 |
| 20260505034030 | 54 | 0 | 0.0 | 0.0 | 0.00 | 0.00 | 0.00 | 71 | 1010.3 |
| 20260505033530 | 54 | 0 | 0.0 | 0.0 | 0.00 | 0.00 | 0.00 | 71 | 1010.3 |
| 20260505033046 | 54 | 0 | 0.0 | 0.0 | 0.00 | 0.00 | 0.00 | 70 | 1010.3 |
| 20260505032535 | 55 | 0 | 0.0 | 0.0 | 0.00 | 0.00 | 0.00 | 70 | 1010.2 |
| 20260505032031 | 55 | 0 | 0.0 | 0.0 | 0.00 | 0.00 | 0.00 | 70 | 1010.2 |
| 20260505031551 | 55 | 0 | 0.0 | 0.0 | 0.00 | 0.00 | 0.00 | 69 | 1010.3 |
| 20260505031029 | 55 | 0 | 0.0 | 0.0 | 0.00 | 0.00 | 0.00 | 69 | 1010.3 |
| 20260505030530 | 55 | 0 | 0.0 | 0.0 | 0.00 | 0.00 | 0.00 | 69 | 1010.2 |
| 20260505030047 | 55 | 0 | 0.0 | 2.0 | 0.00 | 0.00 | 0.00 | 68 | 1010.2 |
| 20260505025531 | 56 | 0 | 0.0 | 2.0 | 0.00 | 0.00 | 0.00 | 68 | 1010.1 |
| 20260505025030 | 56 | 148 | 1.0 | 2.0 | 0.00 | 0.00 | 0.00 | 67 | 1010.1 |
| 20260505024550 | 56 | 157 | 1.0 | 3.0 | 0.00 | 0.00 | 0.00 | 67 | 1010.1 |
| 20260505024033 | 56 | 151 | 0.0 | 3.0 | 0.00 | 0.00 | 0.00 | 67 | 1010.1 |
| 20260505023529 | 56 | 118 | 1.0 | 3.0 | 0.00 | 0.00 | 0.00 | 66 | 1010.0 |
| 20260505023046 | 57 | 203 | 1.0 | 3.0 | 0.00 | 0.00 | 0.00 | 66 | 1010.0 |
| 20260505022529 | 57 | 150 | 1.0 | 3.0 | 0.00 | 0.00 | 0.00 | 66 | 1010.0 |
| 20260505022030 | 57 | 155 | 1.0 | 4.0 | 0.00 | 0.00 | 0.00 | 65 | 1010.1 |
| 20260505021541 | 57 | 131 | 1.0 | 4.0 | 0.00 | 0.00 | 0.00 | 65 | 1010.0 |
| 20260505021030 | 57 | 145 | 1.0 | 4.0 | 0.00 | 0.00 | 0.00 | 65 | 1010.0 |
| 20260505020530 | 58 | 172 | 1.0 | 4.0 | 0.00 | 0.00 | 0.00 | 64 | 1010.0 |
| 20260505020038 | 58 | 223 | 1.0 | 3.0 | 0.00 | 0.00 | 0.00 | 64 | 1009.9 |
| 20260505015530 | 58 | 141 | 1.0 | 3.0 | 0.00 | 0.00 | 0.00 | 63 | 1009.9 |
| 20260505015030 | 58 | 158 | 1.0 | 4.0 | 0.00 | 0.00 | 0.00 | 63 | 1009.9 |
| 20260505014601 | 58 | 136 | 1.0 | 4.0 | 0.00 | 0.00 | 0.00 | 63 | 1009.8 |
| 20260505014029 | 59 | 148 | 1.0 | 3.0 | 0.00 | 0.00 | 0.00 | 62 | 1009.8 |
| 20260505013529 | 59 | 153 | 0.0 | 2.0 | 0.00 | 0.00 | 0.00 | 62 | 1009.8 |
| 20260505013044 | 59 | 137 | 0.0 | 2.0 | 0.00 | 0.00 | 0.00 | 61 | 1009.9 |
| 20260505012529 | 59 | 158 | 1.0 | 2.0 | 0.00 | 0.00 | 0.00 | 60 | 1009.8 |
| 20260505012029 | 59 | 149 | 0.0 | 2.0 | 0.00 | 0.00 | 0.00 | 60 | 1009.7 |
| 20260505011549 | 60 | 149 | 1.0 | 2.0 | 0.00 | 0.00 | 0.00 | 59 | 1009.6 |
| 20260505011030 | 60 | 0 | 0.0 | 1.0 | 0.00 | 0.00 | 0.00 | 58 | 1009.6 |
| 20260505010530 | 60 | 150 | 0.0 | 2.0 | 0.00 | 0.00 | 0.00 | 58 | 1009.5 |
| 20260505010041 | 61 | 158 | 1.0 | 2.0 | 0.00 | 0.00 | 0.00 | 57 | 1009.3 |
| 20260505005530 | 61 | 149 | 1.0 | 2.0 | 0.00 | 0.00 | 0.00 | 57 | 1009.3 |
| 20260505005030 | 61 | 154 | 1.0 | 6.0 | 0.00 | 0.00 | 0.00 | 57 | 1009.2 |
| 20260505004539 | 61 | 163 | 1.0 | 6.0 | 0.00 | 0.00 | 0.00 | 56 | 1009.1 |
| 20260505004029 | 62 | 148 | 2.0 | 6.0 | 0.00 | 0.00 | 0.00 | 55 | 1009.1 |
| 20260505003532 | 62 | 135 | 1.0 | 6.0 | 0.00 | 0.00 | 0.00 | 56 | 1009.0 |
| 20260505003040 | 62 | 157 | 1.0 | 6.0 | 0.00 | 0.00 | 0.00 | 55 | 1008.9 |
| 20260505002529 | 62 | 146 | 1.0 | 4.0 | 0.00 | 0.00 | 0.00 | 55 | 1008.8 |
| 20260505002030 | 62 | 137 | 1.0 | 6.0 | 0.00 | 0.00 | 0.00 | 54 | 1008.8 |
| 20260505001545 | 63 | 171 | 1.0 | 6.0 | 0.00 | 0.00 | 0.00 | 54 | 1008.7 |
| 20260505001029 | 63 | 160 | 2.0 | 6.0 | 0.00 | 0.00 | 0.00 | 52 | 1008.3 |
| 20260505000529 | 63 | 159 | 2.0 | 6.0 | 0.00 | 0.00 | 0.00 | 52 | 1008.4 |
| 20260505000047 | 63 | 140 | 2.0 | 6.0 | 0.00 | 0.00 | 0.00 | 52 | 1008.4 |
| 20260504235530 | 64 | 151 | 1.0 | 6.0 | 0.00 | 0.00 | 0.00 | 52 | 1008.2 |
| 20260504235030 | 64 | 154 | 2.0 | 6.0 | 0.00 | 0.00 | 0.00 | 51 | 1008.2 |
| 20260504234541 | 65 | 147 | 2.0 | 5.0 | 0.00 | 0.00 | 0.00 | 50 | 1008.0 |
| 20260504234030 | 65 | 160 | 2.0 | 5.0 | 0.00 | 0.00 | 0.00 | 49 | 1007.9 |
| 20260504233531 | 66 | 176 | 2.0 | 5.0 | 0.00 | 0.00 | 0.00 | 47 | 1007.9 |
| 20260504233040 | 67 | 148 | 3.0 | 5.0 | 0.00 | 0.00 | 0.00 | 45 | 1007.9 |
| 20260504232533 | 68 | 209 | 1.0 | 4.0 | 0.00 | 0.00 | 0.00 | 42 | 1007.6 |
| 20260504232030 | 68 | 0 | 0.0 | 4.0 | 0.00 | 0.00 | 0.00 | 39 | 1007.6 |
| 20260504231535 | 68 | 149 | 1.0 | 4.0 | 0.00 | 0.00 | 0.00 | 38 | 1007.4 |
| 20260504231029 | 69 | 200 | 1.0 | 8.0 | 0.00 | 0.00 | 0.00 | 38 | 1007.2 |
| 20260504230529 | 69 | 122 | 2.0 | 8.0 | 0.00 | 0.00 | 0.00 | 37 | 1007.2 |
| 20260504230046 | 69 | 136 | 1.0 | 4.0 | 0.00 | 0.00 | 0.00 | 37 | 1007.2 |
| 20260504225530 | 70 | 169 | 2.0 | 4.0 | 0.00 | 0.00 | 0.00 | 36 | 1007.2 |
| 20260504225032 | 70 | 153 | 1.0 | 4.0 | 0.00 | 0.00 | 0.00 | 37 | 1007.3 |
| 20260504224546 | 71 | 194 | 1.0 | 3.0 | 0.00 | 0.00 | 0.00 | 37 | 1007.3 |
| 20260504224030 | 71 | 283 | 1.0 | 5.0 | 0.00 | 0.00 | 0.00 | 35 | 1007.2 |
| 20260504223530 | 72 | 154 | 1.0 | 7.0 | 0.00 | 0.00 | 0.00 | 37 | 1007.1 |
| 20260504223039 | 72 | 212 | 1.0 | 7.0 | 0.00 | 0.00 | 0.00 | 35 | 1007.1 |
| 20260504222529 | 72 | 131 | 2.0 | 6.0 | 0.00 | 0.00 | 0.00 | 36 | 1007.2 |
| 20260504222032 | 72 | 164 | 2.0 | 6.0 | 0.00 | 0.00 | 0.00 | 35 | 1007.3 |
| 20260504221535 | 73 | 181 | 2.0 | 6.0 | 0.00 | 0.00 | 0.00 | 34 | 1007.2 |
| 20260504221029 | 72 | 220 | 2.0 | 6.0 | 0.00 | 0.00 | 0.00 | 35 | 1007.4 |
| 20260504220530 | 72 | 24 | 2.0 | 8.0 | 0.00 | 0.00 | 0.00 | 34 | 1007.3 |
| 20260504220042 | 72 | 131 | 3.0 | 11.0 | 0.00 | 0.00 | 0.00 | 35 | 1007.4 |
| 20260504215530 | 73 | 172 | 4.0 | 11.0 | 0.00 | 0.00 | 0.00 | 33 | 1007.5 |
| 20260504215032 | 73 | 145 | 2.0 | 6.0 | 0.00 | 0.00 | 0.00 | 34 | 1007.4 |
| 20260504214552 | 72 | 200 | 2.0 | 7.0 | 0.00 | 0.00 | 0.00 | 34 | 1007.3 |
| 20260504214032 | 72 | 294 | 2.0 | 7.0 | 0.00 | 0.00 | 0.00 | 36 | 1007.4 |
| 20260504213529 | 72 | 323 | 3.0 | 7.0 | 0.00 | 0.00 | 0.00 | 36 | 1007.6 |
| 20260504213036 | 71 | 0 | 1.0 | 11.0 | 0.00 | 0.00 | 0.00 | 37 | 1007.5 |
| 20260504212529 | 71 | 291 | 3.0 | 11.0 | 0.00 | 0.00 | 0.00 | 34 | 1007.5 |
| 20260504212032 | 72 | 212 | 2.0 | 11.0 | 0.00 | 0.00 | 0.00 | 37 | 1007.3 |
| 20260504211547 | 72 | 196 | 4.0 | 11.0 | 0.00 | 0.00 | 0.00 | 35 | 1007.6 |
| 20260504211031 | 73 | 210 | 3.0 | 11.0 | 0.00 | 0.00 | 0.00 | 34 | 1007.5 |
| 20260504210530 | 73 | 262 | 3.0 | 11.0 | 0.00 | 0.00 | 0.00 | 34 | 1007.5 |
| 20260504210057 | 73 | 135 | 1.0 | 7.0 | 0.00 | 0.00 | 0.00 | 35 | 1007.5 |
| 20260504205529 | 73 | 214 | 3.0 | 9.0 | 0.00 | 0.00 | 0.00 | 36 | 1007.4 |
| 20260504205029 | 72 | 215 | 2.0 | 9.0 | 0.00 | 0.00 | 0.00 | 39 | 1007.5 |